Погода в Майамисберге

США     39°38′29″N   84°17′10″W
темп.,
°C
ветер,
м/с
пор.,
м/с
влажн.,
%
обл.,
%
осадки,
мм/ч
давл.,
гПа
погр.,
м
31 июля, сб
сб3123:00+19ссз2282100 0.0 101825
02:00+19ссв2480100 0.0 1017132
05:00+18всв2383100 0.0 101795
08:00+18вюв1285100 0.0 101871
11:00+22вюв2270100 0.0 1017636
14:00+24юз2262100 0.0 10171290
17:00+25зюз336159 0.1 10151324
20:00+22зсз24794 0.3 1014115
1 августа, вс
вс123:00+18з34895 0.0 101576
02:00+17сз2392100 0.0 101457
05:00+15сз229012 0.0 101433
08:00+17з24900 0.0 1014148
11:00+22з467438 0.1 1014880
14:00+25сз576326 1.7 10131558
17:00+25сз67604 0.2 10131506
20:00+21ссз37810 0.7 1014341
2 августа, пн
пн223:00+17с410900 0.0 1016299
02:00+14ссз24930 0.0 101792
05:00+13ссв23950 0.0 101854
08:00+14ссв25905 0.0 1018162
11:00+20св34675 0.0 1019924
14:00+23св455331 0.0 10181768
17:00+24св444992 0.0 10172084
20:00+20св376793 0.0 1017221
3 августа, вт
вт323:00+16св49780 0.0 1018189
02:00+14св36824 0.0 1018107
05:00+13св348314 0.0 101789
08:00+14ссв37790 0.0 1018181
11:00+21св46561 0.0 1018655
14:00+24св55470 0.0 10171404
17:00+24ссв545117 0.0 10161643
20:00+21ссв36710 0.0 1017223
4 августа, ср
ср423:00+16ссв34810 0.0 101867
02:00+14св34850 0.0 101965
05:00+13ссв35825 0.0 101974
08:00+14ссв35785 0.0 1020141
11:00+21св35598 0.0 1021604
14:00+25св435221 0.0 10201306
17:00+26ссв43526 0.0 10181609
20:00+22ссв36740 0.0 1018194